Time,TemperatureF,DewpointF,PressureIn,WindDirection,WindDirectionDegrees,WindSpeedMPH,WindSpeedGustMPH,Humidity,HourlyPrecipIn,Conditions,Clouds,dailyrainin,SolarRadiationWatts/m^2,SoftwareType,DateUTC
2013-10-28 00:01:00,50.5,41.8,29.65,SSW,192,0.9,4.6,72,0.00,,,0.00,0.0,WeatherDisplay:10.37,2013-10-28 07:01:00,
2013-10-28 00:06:00,50.5,42.2,29.65,SSW,194,0.7,2.3,73,0.00,,,0.00,0.0,WeatherDisplay:10.37,2013-10-28 07:06:00,
2013-10-28 00:11:00,50.3,42.0,29.65,SSW,211,3.5,8.1,73,0.00,,,0.00,0.0,WeatherDisplay:10.37,2013-10-28 07:11:00,
2013-10-28 00:16:00,50.3,42.3,29.65,South,174,2.5,5.8,74,0.00,,,0.00,0.0,WeatherDisplay:10.37,2013-10-28 07:16:00,
2013-10-28 00:21:00,50.3,42.0,29.65,West,267,4.4,9.2,73,0.00,,,0.00,0.0,WeatherDisplay:10.37,2013-10-28 07:21:00,
2013-10-28 00:26:00,50.5,42.2,29.65,West,273,3.0,8.1,73,0.00,,,0.00,0.0,WeatherDisplay:10.37,2013-10-28 07:26:00,
2013-10-28 00:31:00,50.5,42.2,29.65,SSW,209,4.2,6.9,73,0.00,,,0.00,0.0,WeatherDisplay:10.37,2013-10-28 07:31:00,
2013-10-28 00:36:00,50.6,41.9,29.65,WNW,290,3.8,8.1,72,0.00,,,0.00,0.0,WeatherDisplay:10.37,2013-10-28 07:36:00,
2013-10-28 00:41:00,50.8,42.1,29.65,SE,125,6.7,20.7,72,0.00,,,0.00,0.0,WeatherDisplay:10.37,2013-10-28 07:41:00,
2013-10-28 00:46:00,50.9,42.2,29.64,South,169,3.1,9.2,72,0.00,,,0.00,0.0,WeatherDisplay:10.37,2013-10-28 07:46:00,
2013-10-28 00:51:00,50.8,42.1,29.64,SW,219,5.3,13.8,72,0.00,,,0.00,0.0,WeatherDisplay:10.37,2013-10-28 07:51:00,
2013-10-28 00:56:00,50.6,41.9,29.65,West,271,5.4,11.5,72,0.00,,,0.00,0.0,WeatherDisplay:10.37,2013-10-28 07:56:00,
2013-10-28 01:01:00,50.6,42.3,29.65,East,90,2.8,5.8,73,0.00,,,0.00,0.0,WeatherDisplay:10.37,2013-10-28 08:01:00,
2013-10-28 01:06:00,50.3,42.0,29.65,SW,225,2.2,5.8,73,0.00,,,0.00,0.0,WeatherDisplay:10.37,2013-10-28 08:06:00,
2013-10-28 01:11:00,50.3,42.0,29.65,South,173,2.4,6.9,73,0.00,,,0.00,0.0,WeatherDisplay:10.37,2013-10-28 08:11:00,
2013-10-28 01:16:00,50.3,42.0,29.65,SE,138,3.1,6.9,73,0.00,,,0.00,0.0,WeatherDisplay:10.37,2013-10-28 08:16:00,
2013-10-28 01:22:00,50.5,41.8,29.64,SSW,194,4.2,9.2,72,0.00,,,0.00,0.0,WeatherDisplay:10.37,2013-10-28 08:22:00,
2013-10-28 01:27:00,50.6,41.9,29.65,NE,53,4.4,6.0,72,0.00,,,0.00,0.0,WeatherDisplay:10.37,2013-10-28 08:27:00,
2013-10-28 01:32:00,50.5,41.8,29.65,SSW,204,6.3,12.7,72,0.00,,,0.00,0.0,WeatherDisplay:10.37,2013-10-28 08:32:00,
2013-10-28 01:37:00,50.3,42.0,29.65,West,276,5.0,11.5,73,0.00,,,0.00,0.0,WeatherDisplay:10.37,2013-10-28 08:37:00,
2013-10-28 01:42:00,50.3,42.0,29.65,SW,216,5.3,8.1,73,0.00,,,0.00,0.0,WeatherDisplay:10.37,2013-10-28 08:42:00,
2013-10-28 01:47:00,50.3,42.0,29.65,South,180,1.1,5.8,73,0.00,,,0.00,0.0,WeatherDisplay:10.37,2013-10-28 08:47:00,
2013-10-28 01:52:00,50.3,42.0,29.65,ESE,105,2.9,10.4,73,0.00,,,0.00,0.0,WeatherDisplay:10.37,2013-10-28 08:52:00,
2013-10-28 01:57:00,50.5,41.8,29.65,West,277,2.1,3.5,72,0.00,,,0.00,0.0,WeatherDisplay:10.37,2013-10-28 08:57:00,
2013-10-28 02:02:00,50.6,41.5,29.65,WNW,284,2.3,8.1,71,0.00,,,0.00,0.0,WeatherDisplay:10.37,2013-10-28 09:02:00,
2013-10-28 02:07:00,50.8,41.4,29.65,SSE,157,2.8,5.8,70,0.00,,,0.00,0.0,WeatherDisplay:10.37,2013-10-28 09:07:00,
2013-10-28 02:12:00,50.6,41.2,29.65,West,266,3.5,3.5,70,0.00,,,0.00,0.0,WeatherDisplay:10.37,2013-10-28 09:12:00,
2013-10-28 02:17:00,50.8,41.0,29.65,SW,232,3.4,6.9,69,0.00,,,0.00,0.0,WeatherDisplay:10.37,2013-10-28 09:17:00,
2013-10-28 02:22:00,50.8,41.0,29.65,SSE,147,2.4,5.8,69,0.00,,,0.00,0.0,WeatherDisplay:10.37,2013-10-28 09:22:00,
2013-10-28 02:27:00,50.8,41.0,29.66,West,273,1.3,4.0,69,0.00,,,0.00,0.0,WeatherDisplay:10.37,2013-10-28 09:27:00,
2013-10-28 02:32:00,50.6,40.8,29.66,SW,235,1.7,3.5,69,0.00,,,0.00,0.0,WeatherDisplay:10.37,2013-10-28 09:32:00,
2013-10-28 02:37:00,50.6,40.8,29.66,South,171,1.0,3.5,69,0.00,,,0.00,0.0,WeatherDisplay:10.37,2013-10-28 09:37:00,
2013-10-28 02:42:00,50.6,40.8,29.66,NW,315,2.1,5.8,69,0.00,,,0.00,0.0,WeatherDisplay:10.37,2013-10-28 09:42:00,
2013-10-28 02:47:00,50.3,40.9,29.66,SSW,200,1.9,3.5,70,0.00,,,0.00,0.0,WeatherDisplay:10.37,2013-10-28 09:47:00,
2013-10-28 02:52:00,50.3,40.9,29.66,SSE,159,2.4,4.6,70,0.00,,,0.00,0.0,WeatherDisplay:10.37,2013-10-28 09:52:00,
2013-10-28 02:57:00,50.2,41.2,29.66,SSW,200,1.8,3.5,71,0.00,,,0.00,0.0,WeatherDisplay:10.37,2013-10-28 09:57:00,
2013-10-28 03:02:00,50.2,41.2,29.66,SSE,165,3.9,4.6,71,0.00,,,0.00,0.0,WeatherDisplay:10.37,2013-10-28 10:02:00,
2013-10-28 03:07:00,50.3,41.3,29.66,SW,217,2.0,3.5,71,0.00,,,0.00,0.0,WeatherDisplay:10.37,2013-10-28 10:07:00,
2013-10-28 03:12:00,50.2,41.5,29.66,West,265,1.0,3.5,72,0.00,,,0.00,0.0,WeatherDisplay:10.37,2013-10-28 10:12:00,
2013-10-28 03:17:00,50.0,41.3,29.66,SSW,197,0.0,1.2,72,0.00,,,0.00,0.0,WeatherDisplay:10.37,2013-10-28 10:17:00,
2013-10-28 03:22:00,50.0,41.7,29.66,South,171,1.7,4.6,73,0.00,,,0.00,0.0,WeatherDisplay:10.37,2013-10-28 10:22:00,
2013-10-28 03:27:00,50.0,41.7,29.66,WSW,253,0.1,2.3,73,0.00,,,0.00,0.0,WeatherDisplay:10.37,2013-10-28 10:27:00,
2013-10-28 03:32:00,50.0,42.0,29.67,SSW,193,0.6,2.3,74,0.00,,,0.00,0.0,WeatherDisplay:10.37,2013-10-28 10:32:00,
2013-10-28 03:37:00,49.9,42.3,29.66,SW,236,0.1,1.2,75,0.00,,,0.00,0.0,WeatherDisplay:10.37,2013-10-28 10:37:00,
2013-10-28 03:42:00,49.7,42.4,29.66,SE,146,1.0,3.5,76,0.00,,,0.00,0.0,WeatherDisplay:10.37,2013-10-28 10:42:00,
2013-10-28 03:47:00,49.6,42.7,29.66,SSW,197,2.6,3.5,77,0.00,,,0.00,0.0,WeatherDisplay:10.37,2013-10-28 10:47:00,
2013-10-28 03:52:00,49.6,42.7,29.65,SE,142,0.0,1.2,77,0.00,,,0.00,0.0,WeatherDisplay:10.37,2013-10-28 10:52:00,
2013-10-28 03:57:00,49.6,42.7,29.66,ESE,110,1.2,5.8,77,0.00,,,0.00,0.0,WeatherDisplay:10.37,2013-10-28 10:57:00,
2013-10-28 04:02:00,49.7,43.1,29.65,WSW,257,1.6,3.5,78,0.00,,,0.00,0.0,WeatherDisplay:10.37,2013-10-28 11:02:00,
2013-10-28 04:07:00,49.7,43.1,29.65,SSW,209,0.0,2.0,78,0.00,,,0.00,0.0,WeatherDisplay:10.37,2013-10-28 11:07:00,
2013-10-28 04:12:00,49.7,43.1,29.65,ESE,111,1.9,4.6,78,0.00,,,0.00,0.0,WeatherDisplay:10.37,2013-10-28 11:12:00,
2013-10-28 04:17:00,49.7,42.8,29.65,SSE,158,1.2,4.0,77,0.00,,,0.00,0.0,WeatherDisplay:10.37,2013-10-28 11:17:00,
2013-10-28 04:22:00,49.7,42.8,29.65,South,177,0.6,3.5,77,0.00,,,0.00,0.0,WeatherDisplay:10.37,2013-10-28 11:22:00,
2013-10-28 04:27:00,49.7,42.8,29.65,SW,225,1.5,3.5,77,0.00,,,0.00,0.0,WeatherDisplay:10.37,2013-10-28 11:27:00,
2013-10-28 04:32:00,49.6,43.0,29.65,SSE,168,1.5,3.5,78,0.00,,,0.00,0.0,WeatherDisplay:10.37,2013-10-28 11:32:00,
2013-10-28 04:37:00,49.6,43.0,29.64,South,177,0.5,3.5,78,0.00,,,0.00,0.0,WeatherDisplay:10.37,2013-10-28 11:37:00,
2013-10-28 04:42:00,49.4,42.8,29.64,SSE,157,1.6,3.5,78,0.00,,,0.00,0.0,WeatherDisplay:10.37,2013-10-28 11:42:00,
2013-10-28 04:47:00,49.4,42.8,29.64,SW,217,0.8,3.5,78,0.00,,,0.00,0.0,WeatherDisplay:10.37,2013-10-28 11:47:00,
2013-10-28 04:52:00,49.4,42.8,29.64,SW,233,1.5,3.5,78,0.00,,,0.00,0.0,WeatherDisplay:10.37,2013-10-28 11:52:00,
2013-10-28 04:57:00,49.3,42.7,29.64,SSE,151,0.5,3.5,78,0.00,,,0.00,0.0,WeatherDisplay:10.37,2013-10-28 11:57:00,
2013-10-28 05:02:00,49.3,43.1,29.64,SSW,206,2.4,4.6,79,0.00,,,0.00,0.0,WeatherDisplay:10.37,2013-10-28 12:02:00,
2013-10-28 05:07:00,49.1,42.9,29.64,SW,229,0.5,4.6,79,0.00,,,0.00,0.0,WeatherDisplay:10.37,2013-10-28 12:07:00,
2013-10-28 05:12:00,49.3,42.7,29.65,SSE,165,2.7,3.5,78,0.00,,,0.00,0.0,WeatherDisplay:10.37,2013-10-28 12:12:00,
2013-10-28 05:17:00,49.4,42.8,29.65,SW,221,0.0,0.0,78,0.00,,,0.00,0.0,WeatherDisplay:10.37,2013-10-28 12:17:00,
2013-10-28 05:22:00,49.3,42.7,29.65,SSW,201,0.0,1.2,78,0.00,,,0.00,0.0,WeatherDisplay:10.37,2013-10-28 12:22:00,
2013-10-28 05:27:00,49.0,42.8,29.65,SW,215,0.4,2.0,79,0.00,,,0.00,0.0,WeatherDisplay:10.37,2013-10-28 12:27:00,
2013-10-28 05:32:00,48.8,42.6,29.65,WSW,253,0.3,0.0,79,0.00,,,0.00,0.0,WeatherDisplay:10.37,2013-10-28 12:32:00,
2013-10-28 05:37:00,48.7,42.5,29.65,WSW,253,0.0,0.0,79,0.00,,,0.00,0.0,WeatherDisplay:10.37,2013-10-28 12:37:00,
2013-10-28 05:42:00,48.4,42.5,29.66,WSW,253,0.3,2.3,80,0.00,,,0.00,0.0,WeatherDisplay:10.37,2013-10-28 12:42:00,
2013-10-28 05:47:00,48.2,42.3,29.66,South,190,1.2,3.5,80,0.00,,,0.00,0.0,WeatherDisplay:10.37,2013-10-28 12:47:00,
2013-10-28 05:52:00,48.4,42.5,29.66,SW,229,0.0,0.0,80,0.00,,,0.00,0.0,WeatherDisplay:10.37,2013-10-28 12:52:00,
2013-10-28 05:57:00,48.4,42.5,29.66,SW,218,0.0,0.0,80,0.00,,,0.00,0.0,WeatherDisplay:10.37,2013-10-28 12:57:00,
2013-10-28 06:02:00,48.4,42.5,29.66,SSW,207,0.7,3.5,80,0.00,,,0.00,0.0,WeatherDisplay:10.37,2013-10-28 13:02:00,
2013-10-28 06:07:00,48.4,42.5,29.66,SSW,205,0.5,3.5,80,0.00,,,0.00,0.0,WeatherDisplay:10.37,2013-10-28 13:07:00,
2013-10-28 06:12:00,48.2,42.3,29.66,WSW,243,0.6,0.0,80,0.00,,,0.00,0.0,WeatherDisplay:10.37,2013-10-28 13:12:00,
2013-10-28 06:17:00,48.1,42.5,29.66,South,183,0.4,3.5,81,0.00,,,0.00,0.0,WeatherDisplay:10.37,2013-10-28 13:17:00,
2013-10-28 06:22:00,47.9,42.3,29.66,South,183,0.0,1.2,81,0.00,,,0.00,0.0,WeatherDisplay:10.37,2013-10-28 13:22:00,
2013-10-28 06:27:00,47.6,42.1,29.66,SW,230,1.1,4.6,81,0.00,,,0.00,0.0,WeatherDisplay:10.37,2013-10-28 13:27:00,
2013-10-28 06:32:00,47.5,42.0,29.66,SW,225,0.8,2.3,81,0.00,,,0.00,0.0,WeatherDisplay:10.37,2013-10-28 13:32:00,
2013-10-28 06:37:00,47.2,42.0,29.66,SW,225,0.8,1.2,82,0.00,,,0.00,0.0,WeatherDisplay:10.37,2013-10-28 13:37:00,
2013-10-28 06:42:00,47.1,41.9,29.66,SW,225,0.1,0.0,82,0.00,,,0.00,0.0,WeatherDisplay:10.37,2013-10-28 13:42:00,
2013-10-28 06:47:00,46.8,41.6,29.66,SW,225,0.0,0.0,82,0.00,,,0.00,0.0,WeatherDisplay:10.37,2013-10-28 13:47:00,
2013-10-28 06:52:00,46.5,41.6,29.66,SW,225,0.0,0.0,83,0.00,,,0.00,0.0,WeatherDisplay:10.37,2013-10-28 13:52:00,
2013-10-28 06:57:00,46.3,41.7,29.66,SW,225,0.2,0.0,84,0.00,,,0.00,0.0,WeatherDisplay:10.37,2013-10-28 13:57:00,
2013-10-28 07:02:00,46.3,41.7,29.66,SW,225,0.0,0.0,84,0.00,,,0.00,0.0,WeatherDisplay:10.37,2013-10-28 14:02:00,
2013-10-28 07:07:00,46.0,41.4,29.67,SW,225,0.0,0.0,84,0.00,,,0.00,0.0,WeatherDisplay:10.37,2013-10-28 14:07:00,
2013-10-28 07:12:00,46.0,41.4,29.67,SW,225,0.0,0.0,84,0.00,,,0.00,0.0,WeatherDisplay:10.37,2013-10-28 14:12:00,
2013-10-28 07:17:00,46.0,41.4,29.66,SW,225,0.0,0.0,84,0.00,,,0.00,0.0,WeatherDisplay:10.37,2013-10-28 14:17:00,
2013-10-28 07:22:00,45.9,41.3,29.66,SW,225,0.0,0.0,84,0.00,,,0.00,0.0,WeatherDisplay:10.37,2013-10-28 14:22:00,
2013-10-28 07:27:00,45.7,41.4,29.66,SW,225,0.0,0.0,85,0.00,,,0.00,0.0,WeatherDisplay:10.37,2013-10-28 14:27:00,
2013-10-28 07:32:00,45.7,41.4,29.66,SE,144,0.8,2.3,85,0.00,,,0.00,0.0,WeatherDisplay:10.37,2013-10-28 14:32:00,
2013-10-28 07:37:00,45.9,41.3,29.66,SE,144,0.0,0.0,84,0.00,,,0.00,0.0,WeatherDisplay:10.37,2013-10-28 14:37:00,
2013-10-28 07:42:00,45.9,41.3,29.67,SE,144,0.1,0.0,84,0.00,,,0.00,0.0,WeatherDisplay:10.37,2013-10-28 14:42:00,
2013-10-28 07:47:00,46.0,41.4,29.67,South,180,0.0,0.0,84,0.00,,,0.00,0.0,WeatherDisplay:10.37,2013-10-28 14:47:00,
2013-10-28 07:52:00,46.0,41.4,29.67,South,180,0.0,0.0,84,0.00,,,0.00,0.0,WeatherDisplay:10.37,2013-10-28 14:52:00,
2013-10-28 07:57:00,46.2,41.6,29.67,South,180,0.0,0.0,84,0.00,,,0.00,0.0,WeatherDisplay:10.37,2013-10-28 14:57:00,
2013-10-28 08:02:00,46.5,41.9,29.67,South,180,0.1,1.2,84,0.00,,,0.00,0.0,WeatherDisplay:10.37,2013-10-28 15:02:00,
2013-10-28 08:07:00,47.2,42.3,29.67,South,180,0.0,0.0,83,0.00,,,0.00,0.0,WeatherDisplay:10.37,2013-10-28 15:07:00,
2013-10-28 08:12:00,47.9,42.7,29.68,South,180,0.0,1.2,82,0.00,,,0.00,0.0,WeatherDisplay:10.37,2013-10-28 15:12:00,
2013-10-28 08:17:00,48.5,43.3,29.68,South,180,0.0,0.0,82,0.00,,,0.00,0.0,WeatherDisplay:10.37,2013-10-28 15:17:00,
2013-10-28 08:22:00,49.4,43.8,29.69,South,180,0.0,0.0,81,0.00,,,0.00,0.0,WeatherDisplay:10.37,2013-10-28 15:22:00,
2013-10-28 08:27:00,50.2,43.6,29.69,South,180,0.0,0.0,78,0.00,,,0.00,0.0,WeatherDisplay:10.37,2013-10-28 15:27:00,
2013-10-28 08:32:00,50.8,43.8,29.69,South,180,0.0,0.0,77,0.00,,,0.00,0.0,WeatherDisplay:10.37,2013-10-28 15:32:00,
2013-10-28 08:37:00,50.6,43.0,29.69,South,180,0.2,1.2,75,0.00,,,0.00,0.0,WeatherDisplay:10.37,2013-10-28 15:37:00,
2013-10-28 08:42:00,51.3,43.6,29.69,SW,227,0.3,1.2,75,0.00,,,0.00,0.0,WeatherDisplay:10.37,2013-10-28 15:42:00,
2013-10-28 08:47:00,52.2,44.2,29.69,SW,227,0.0,1.2,74,0.00,,,0.00,0.0,WeatherDisplay:10.37,2013-10-28 15:47:00,
2013-10-28 08:52:00,53.1,43.9,29.70,SW,236,0.1,0.0,71,0.00,,,0.00,0.0,WeatherDisplay:10.37,2013-10-28 15:52:00,
2013-10-28 08:57:00,54.0,44.1,29.70,WSW,244,1.0,1.2,69,0.00,,,0.00,0.0,WeatherDisplay:10.37,2013-10-28 15:57:00,
2013-10-28 09:02:00,55.0,44.2,29.70,WSW,244,0.0,0.0,67,0.00,OVC,,0.00,0.0,WeatherDisplay:10.37,2013-10-28 16:02:00,
2013-10-28 09:07:00,55.8,44.2,29.70,WSW,244,0.4,2.3,65,0.00,OVC,,0.00,0.0,WeatherDisplay:10.37,2013-10-28 16:07:00,
2013-10-28 09:12:00,56.6,44.1,29.70,WSW,244,0.1,2.0,63,0.00,OVC,,0.00,0.0,WeatherDisplay:10.37,2013-10-28 16:12:00,
2013-10-28 09:17:00,57.2,43.4,29.70,WSW,254,0.6,3.5,60,0.00,OVC,,0.00,0.0,WeatherDisplay:10.37,2013-10-28 16:17:00,
2013-10-28 09:22:00,57.9,43.7,29.70,WSW,248,0.6,3.5,59,0.00,OVC,,0.00,0.0,WeatherDisplay:10.37,2013-10-28 16:22:00,
2013-10-28 09:27:00,58.5,43.3,29.70,WSW,249,0.0,0.0,57,0.00,OVC,,0.00,0.0,WeatherDisplay:10.37,2013-10-28 16:27:00,
2013-10-28 09:32:00,58.2,43.0,29.70,WSW,238,0.0,0.0,57,0.00,OVC,,0.00,0.0,WeatherDisplay:10.37,2013-10-28 16:32:00,
2013-10-28 09:37:00,56.9,42.3,29.70,SE,136,0.0,0.0,58,0.00,OVC,,0.00,0.0,WeatherDisplay:10.37,2013-10-28 16:37:00,
2013-10-28 09:42:00,57.5,42.4,29.70,South,191,0.3,3.5,57,0.00,OVC,,0.00,0.0,WeatherDisplay:10.37,2013-10-28 16:42:00,
2013-10-28 09:47:00,58.1,42.5,29.70,SSW,204,0.5,3.5,56,0.00,OVC,,0.00,0.0,WeatherDisplay:10.37,2013-10-28 16:47:00,
2013-10-28 09:52:00,58.9,43.2,29.70,West,265,0.6,2.3,56,0.00,OVC,,0.00,0.0,WeatherDisplay:10.37,2013-10-28 16:52:00,
2013-10-28 09:57:00,59.2,42.6,29.70,SW,231,0.9,3.5,54,0.00,OVC,,0.00,0.0,WeatherDisplay:10.37,2013-10-28 16:57:00,
2013-10-28 10:02:00,58.5,42.4,29.70,SSW,197,0.1,2.3,55,0.00,OVC,,0.00,0.0,WeatherDisplay:10.37,2013-10-28 17:02:00,
2013-10-28 10:07:00,58.7,42.1,29.70,SSE,162,0.2,2.0,54,0.00,OVC,,0.00,0.0,WeatherDisplay:10.37,2013-10-28 17:07:00,
2013-10-28 10:12:00,59.0,41.9,29.70,WSW,248,0.1,2.3,53,0.00,OVC,,0.00,0.0,WeatherDisplay:10.37,2013-10-28 17:12:00,
2013-10-28 10:17:00,59.8,42.6,29.70,SW,231,0.1,1.2,53,0.00,OVC,,0.00,0.0,WeatherDisplay:10.37,2013-10-28 17:17:00,
2013-10-28 10:23:00,61.2,42.4,29.70,WSW,250,0.9,3.5,50,0.00,OVC,,0.00,0.0,WeatherDisplay:10.37,2013-10-28 17:23:00,
2013-10-28 10:28:00,62.3,42.3,29.70,West,261,0.5,3.5,48,0.00,OVC,,0.00,0.0,WeatherDisplay:10.37,2013-10-28 17:28:00,
2013-10-28 10:33:00,63.0,41.9,29.70,WNW,282,1.2,3.5,46,0.00,OVC,,0.00,0.0,WeatherDisplay:10.37,2013-10-28 17:33:00,
2013-10-28 10:38:00,62.8,41.7,29.70,SSW,211,0.0,1.2,46,0.00,OVC,,0.00,0.0,WeatherDisplay:10.37,2013-10-28 17:38:00,
2013-10-28 10:43:00,63.2,41.5,29.70,WSW,247,0.1,1.2,45,0.00,OVC,,0.00,0.0,WeatherDisplay:10.37,2013-10-28 17:43:00,
2013-10-28 10:48:00,63.6,41.9,29.70,NNE,13,3.4,4.6,45,0.00,OVC,,0.00,0.0,WeatherDisplay:10.37,2013-10-28 17:48:00,
2013-10-28 10:53:00,63.3,41.6,29.70,ESE,110,0.0,1.2,45,0.00,OVC,,0.00,0.0,WeatherDisplay:10.37,2013-10-28 17:53:00,
2013-10-28 10:58:00,62.2,40.0,29.70,ENE,67,1.5,1.5,44,0.00,OVC,,0.00,0.0,WeatherDisplay:10.37,2013-10-28 17:58:00,
2013-10-28 11:03:00,62.8,40.0,29.70,West,277,1.8,3.5,43,0.00,OVC,,0.00,0.0,WeatherDisplay:10.37,2013-10-28 18:03:00,
2013-10-28 11:08:00,63.6,40.7,29.70,NW,309,3.9,5.8,43,0.00,OVC,,0.00,0.0,WeatherDisplay:10.37,2013-10-28 18:08:00,
2013-10-28 11:13:00,63.8,40.9,29.70,WNW,291,0.8,3.5,43,0.00,OVC,,0.00,0.0,WeatherDisplay:10.37,2013-10-28 18:13:00,
2013-10-28 11:18:00,65.1,40.2,29.70,WNW,291,0.3,0.0,40,0.00,OVC,,0.00,0.0,WeatherDisplay:10.37,2013-10-28 18:18:00,
2013-10-28 11:23:00,65.8,40.8,29.70,WNW,291,1.0,3.5,40,0.00,OVC,,0.00,0.0,WeatherDisplay:10.37,2013-10-28 18:23:00,
2013-10-28 11:28:00,66.3,41.2,29.70,WNW,286,0.0,4.6,40,0.00,OVC,,0.00,0.0,WeatherDisplay:10.37,2013-10-28 18:28:00,
2013-10-28 11:33:00,66.3,40.6,29.70,WNW,284,1.9,4.6,39,0.00,OVC,,0.00,0.0,WeatherDisplay:10.37,2013-10-28 18:33:00,
2013-10-28 11:38:00,66.6,40.2,29.70,WNW,285,1.4,3.5,38,0.00,OVC,,0.00,0.0,WeatherDisplay:10.37,2013-10-28 18:38:00,
2013-10-28 11:43:00,66.8,40.4,29.70,WSW,250,0.5,1.2,38,0.00,OVC,,0.00,0.0,WeatherDisplay:10.37,2013-10-28 18:43:00,
2013-10-28 11:48:00,67.1,40.6,29.70,WSW,255,0.2,1.2,38,0.00,OVC,,0.00,0.0,WeatherDisplay:10.37,2013-10-28 18:48:00,
2013-10-28 11:53:00,67.6,41.1,29.70,West,276,0.1,1.2,38,0.00,OVC,,0.00,0.0,WeatherDisplay:10.37,2013-10-28 18:53:00,
2013-10-28 11:58:00,67.8,40.6,29.70,WNW,283,1.1,3.5,37,0.00,OVC,,0.00,0.0,WeatherDisplay:10.37,2013-10-28 18:58:00,
2013-10-28 12:03:00,67.9,44.0,29.70,NW,322,0.2,3.5,42,0.00,OVC,,0.00,0.0,WeatherDisplay:10.37,2013-10-28 19:03:00,
2013-10-28 12:08:00,67.9,43.3,29.70,WNW,300,1.2,3.5,41,0.00,OVC,,0.00,0.0,WeatherDisplay:10.37,2013-10-28 19:08:00,
2013-10-28 12:13:00,67.6,43.7,29.70,WNW,299,1.4,3.5,42,0.00,OVC,,0.00,0.0,WeatherDisplay:10.37,2013-10-28 19:13:00,
2013-10-28 12:18:00,67.4,43.5,29.70,NNW,327,0.8,2.3,42,0.00,OVC,,0.00,0.0,WeatherDisplay:10.37,2013-10-28 19:18:00,
2013-10-28 12:23:00,67.4,43.5,29.69,NW,315,0.1,1.2,42,0.00,OVC,,0.00,0.0,WeatherDisplay:10.37,2013-10-28 19:23:00,
2013-10-28 12:28:00,67.3,44.0,29.69,NNW,332,0.2,1.2,43,0.00,OVC,,0.00,0.0,WeatherDisplay:10.37,2013-10-28 19:28:00,
2013-10-28 12:33:00,67.6,44.3,29.69,North,350,0.7,2.3,43,0.00,OVC,,0.00,0.0,WeatherDisplay:10.37,2013-10-28 19:33:00,
2013-10-28 12:38:00,67.9,43.3,29.69,NNW,338,0.4,1.2,41,0.00,OVC,,0.00,0.0,WeatherDisplay:10.37,2013-10-28 19:38:00,
2013-10-28 12:43:00,68.3,43.7,29.69,North,360,0.6,1.2,41,0.00,OVC,,0.00,0.0,WeatherDisplay:10.37,2013-10-28 19:43:00,
2013-10-28 12:49:00,68.8,44.1,29.68,North,360,0.0,0.0,41,0.00,OVC,,0.00,0.0,WeatherDisplay:10.37,2013-10-28 19:49:00,
2013-10-28 12:54:00,69.3,43.9,29.68,NW,319,1.7,3.5,40,0.00,OVC,,0.00,0.0,WeatherDisplay:10.37,2013-10-28 19:54:00,
2013-10-28 12:59:00,69.5,44.1,29.68,NW,321,0.1,1.2,40,0.00,OVC,,0.00,0.0,WeatherDisplay:10.37,2013-10-28 19:59:00,
2013-10-28 13:04:00,68.3,37.3,29.68,South,169,0.5,2.0,32,0.00,OVC,,0.00,0.0,WeatherDisplay:10.37,2013-10-28 20:04:00,
2013-10-28 13:09:00,67.8,38.4,29.68,WSW,254,0.4,2.3,34,0.00,OVC,,0.00,0.0,WeatherDisplay:10.37,2013-10-28 20:09:00,
2013-10-28 13:14:00,68.3,38.1,29.68,West,271,1.0,3.5,33,0.00,OVC,,0.00,0.0,WeatherDisplay:10.37,2013-10-28 20:14:00,
2013-10-28 13:19:00,68.8,38.5,29.67,WNW,297,2.4,3.5,33,0.00,OVC,,0.00,0.0,WeatherDisplay:10.37,2013-10-28 20:19:00,
2013-10-28 13:24:00,68.9,38.6,29.67,WNW,290,0.0,1.2,33,0.00,OVC,,0.00,0.0,WeatherDisplay:10.37,2013-10-28 20:24:00,
2013-10-28 13:29:00,69.6,38.4,29.67,WNW,292,1.7,3.5,32,0.00,OVC,,0.00,0.0,WeatherDisplay:10.37,2013-10-28 20:29:00,
2013-10-28 13:34:00,70.0,40.3,29.67,WNW,284,0.3,1.2,34,0.00,OVC,,0.00,0.0,WeatherDisplay:10.37,2013-10-28 20:34:00,
2013-10-28 13:39:00,69.8,39.4,29.67,WNW,296,2.9,3.5,33,0.00,OVC,,0.00,0.0,WeatherDisplay:10.37,2013-10-28 20:39:00,
2013-10-28 13:44:00,69.3,41.9,29.67,WNW,296,0.7,3.5,37,0.00,OVC,,0.00,0.0,WeatherDisplay:10.37,2013-10-28 20:44:00,
2013-10-28 13:49:00,69.3,40.5,29.67,WNW,291,0.8,3.5,35,0.00,OVC,,0.00,0.0,WeatherDisplay:10.37,2013-10-28 20:49:00,
2013-10-28 13:54:00,69.1,42.4,29.66,WNW,294,1.4,3.5,38,0.00,OVC,,0.00,0.0,WeatherDisplay:10.37,2013-10-28 20:54:00,
2013-10-28 13:59:00,69.8,42.3,29.66,WNW,297,0.1,3.5,37,0.00,OVC,,0.00,0.0,WeatherDisplay:10.37,2013-10-28 20:59:00,
2013-10-28 14:04:00,70.3,42.8,29.66,WNW,286,1.3,3.5,37,0.00,OVC,,0.00,0.0,WeatherDisplay:10.37,2013-10-28 21:04:00,
2013-10-28 14:09:00,70.0,41.1,29.66,West,275,1.5,3.5,35,0.00,OVC,,0.00,0.0,WeatherDisplay:10.37,2013-10-28 21:09:00,
2013-10-28 14:14:00,69.6,44.2,29.66,WNW,290,4.2,6.9,40,0.00,OVC,,0.00,0.0,WeatherDisplay:10.37,2013-10-28 21:14:00,
2013-10-28 14:19:00,68.4,42.5,29.66,WSW,242,2.3,4.6,39,0.00,OVC,,0.00,0.0,WeatherDisplay:10.37,2013-10-28 21:19:00,
2013-10-28 14:24:00,68.4,41.8,29.66,West,266,2.2,3.5,38,0.00,OVC,,0.00,0.0,WeatherDisplay:10.37,2013-10-28 21:24:00,
2013-10-28 14:29:00,68.1,42.9,29.66,SW,229,1.0,8.1,40,0.00,OVC,,0.00,0.0,WeatherDisplay:10.37,2013-10-28 21:29:00,
2013-10-28 14:34:00,67.6,41.1,29.66,West,281,4.6,6.9,38,0.00,OVC,,0.00,0.0,WeatherDisplay:10.37,2013-10-28 21:34:00,
2013-10-28 14:39:00,67.3,44.0,29.67,West,275,1.5,4.6,43,0.00,OVC,,0.00,0.0,WeatherDisplay:10.37,2013-10-28 21:39:00,
2013-10-28 14:44:00,67.3,44.0,29.67,WNW,289,4.3,8.1,43,0.00,OVC,,0.00,0.0,WeatherDisplay:10.37,2013-10-28 21:44:00,
2013-10-28 14:49:00,66.9,41.8,29.67,West,268,0.2,3.5,40,0.00,OVC,,0.00,0.0,WeatherDisplay:10.37,2013-10-28 21:49:00,
2013-10-28 14:54:00,67.1,42.0,29.67,West,268,4.0,6.9,40,0.00,OVC,,0.00,0.0,WeatherDisplay:10.37,2013-10-28 21:54:00,
2013-10-28 14:59:00,66.4,41.3,29.67,West,272,2.9,8.1,40,0.00,OVC,,0.00,0.0,WeatherDisplay:10.37,2013-10-28 21:59:00,
2013-10-28 15:04:00,66.1,41.7,29.67,West,261,2.0,3.5,41,0.00,OVC,,0.00,0.0,WeatherDisplay:10.37,2013-10-28 22:04:00,
2013-10-28 15:09:00,65.8,41.4,29.67,West,265,4.3,5.8,41,0.00,OVC,,0.00,0.0,WeatherDisplay:10.37,2013-10-28 22:09:00,
2013-10-28 15:14:00,65.8,42.1,29.67,West,275,3.2,5.8,42,0.00,OVC,,0.00,0.0,WeatherDisplay:10.37,2013-10-28 22:14:00,
2013-10-28 15:19:00,65.4,41.7,29.67,WSW,253,1.8,6.9,42,0.00,OVC,,0.00,0.0,WeatherDisplay:10.37,2013-10-28 22:19:00,
2013-10-28 15:24:00,64.8,41.8,29.67,WSW,254,1.0,2.3,43,0.00,OVC,,0.00,0.0,WeatherDisplay:10.37,2013-10-28 22:24:00,
2013-10-28 15:29:00,64.3,41.3,29.67,WNW,294,3.3,6.9,43,0.00,OVC,,0.00,0.0,WeatherDisplay:10.37,2013-10-28 22:29:00,
2013-10-28 15:34:00,64.0,41.0,29.67,West,259,1.5,3.5,43,0.00,OVC,,0.00,0.0,WeatherDisplay:10.37,2013-10-28 22:34:00,
2013-10-28 15:39:00,64.3,41.3,29.68,WSW,255,0.0,2.3,43,0.00,OVC,,0.00,0.0,WeatherDisplay:10.37,2013-10-28 22:39:00,
2013-10-28 15:44:00,64.3,41.9,29.68,SSE,162,2.7,5.8,44,0.00,OVC,,0.00,0.0,WeatherDisplay:10.37,2013-10-28 22:44:00,
2013-10-28 15:49:00,64.0,42.2,29.68,WSW,238,1.4,3.5,45,0.00,OVC,,0.00,0.0,WeatherDisplay:10.37,2013-10-28 22:49:00,
2013-10-28 15:54:00,63.6,41.9,29.68,West,261,1.8,3.5,45,0.00,OVC,,0.00,0.0,WeatherDisplay:10.37,2013-10-28 22:54:00,
2013-10-28 15:59:00,63.5,42.3,29.68,West,263,0.2,3.5,46,0.00,OVC,,0.00,0.0,WeatherDisplay:10.37,2013-10-28 22:59:00,
2013-10-28 16:04:00,63.2,42.1,29.68,SSW,206,0.8,3.5,46,0.00,OVC,,0.00,0.0,WeatherDisplay:10.37,2013-10-28 23:04:00,
2013-10-28 16:09:00,62.8,41.7,29.68,WSW,240,0.1,1.2,46,0.00,OVC,,0.00,0.0,WeatherDisplay:10.37,2013-10-28 23:09:00,
2013-10-28 16:14:00,62.8,41.7,29.68,SE,130,1.7,3.5,46,0.00,OVC,,0.00,0.0,WeatherDisplay:10.37,2013-10-28 23:14:00,
2013-10-28 16:19:00,62.0,41.0,29.69,WSW,248,1.3,3.5,46,0.00,OVC,,0.00,0.0,WeatherDisplay:10.37,2013-10-28 23:19:00,
2013-10-28 16:24:00,61.9,41.4,29.69,WSW,238,0.1,1.2,47,0.00,OVC,,0.00,0.0,WeatherDisplay:10.37,2013-10-28 23:24:00,
2013-10-28 16:29:00,61.5,41.6,29.69,SSW,196,0.3,1.2,48,0.00,OVC,,0.00,0.0,WeatherDisplay:10.37,2013-10-28 23:29:00,
2013-10-28 16:34:00,60.9,41.6,29.68,ESE,118,0.6,2.3,49,0.00,OVC,,0.00,0.0,WeatherDisplay:10.37,2013-10-28 23:34:00,
2013-10-28 16:39:00,60.3,41.6,29.69,SSW,201,1.1,3.5,50,0.00,OVC,,0.00,0.0,WeatherDisplay:10.37,2013-10-28 23:39:00,
2013-10-28 16:44:00,59.6,41.4,29.69,South,190,0.6,3.5,51,0.00,OVC,,0.00,0.0,WeatherDisplay:10.37,2013-10-28 23:44:00,
2013-10-28 16:49:00,59.2,41.6,29.69,South,188,0.2,3.5,52,0.00,OVC,,0.00,0.0,WeatherDisplay:10.37,2013-10-28 23:49:00,
2013-10-28 16:54:00,59.0,41.9,29.69,WSW,247,0.3,3.5,53,0.00,OVC,,0.00,0.0,WeatherDisplay:10.37,2013-10-28 23:54:00,
2013-10-28 16:59:00,58.5,41.9,29.69,SSW,192,3.3,8.1,54,0.00,OVC,,0.00,0.0,WeatherDisplay:10.37,2013-10-28 23:59:00,
2013-10-28 17:04:00,57.6,41.5,29.69,South,186,1.6,3.5,55,0.00,,,0.00,0.0,WeatherDisplay:10.37,2013-10-29 00:04:00,
2013-10-28 17:09:00,57.3,42.2,29.69,WSW,240,2.3,3.5,57,0.00,,,0.00,0.0,WeatherDisplay:10.37,2013-10-29 00:09:00,
2013-10-28 17:14:00,56.7,42.1,29.69,WSW,251,1.8,3.5,58,0.00,,,0.00,0.0,WeatherDisplay:10.37,2013-10-29 00:14:00,
2013-10-28 17:19:00,56.4,42.7,29.70,SW,233,1.0,6.9,60,0.00,,,0.00,0.0,WeatherDisplay:10.37,2013-10-29 00:19:00,
2013-10-28 17:24:00,56.3,43.0,29.70,SSW,195,1.6,3.5,61,0.00,,,0.00,0.0,WeatherDisplay:10.37,2013-10-29 00:24:00,
2013-10-28 17:29:00,56.0,42.7,29.70,SW,223,0.6,3.5,61,0.00,,,0.00,0.0,WeatherDisplay:10.37,2013-10-29 00:29:00,
2013-10-28 17:34:00,55.6,42.8,29.70,SW,225,0.0,1.2,62,0.00,,,0.00,0.0,WeatherDisplay:10.37,2013-10-29 00:34:00,
2013-10-28 17:39:00,55.2,43.2,29.70,West,277,1.4,3.5,64,0.00,,,0.00,0.0,WeatherDisplay:10.37,2013-10-29 00:39:00,
2013-10-28 17:44:00,54.9,42.9,29.70,SE,142,1.2,3.5,64,0.00,,,0.00,0.0,WeatherDisplay:10.37,2013-10-29 00:44:00,
2013-10-28 17:49:00,54.6,42.7,29.70,West,271,2.6,6.9,64,0.00,,,0.00,0.0,WeatherDisplay:10.37,2013-10-29 00:49:00,
2013-10-28 17:54:00,54.2,43.1,29.71,SSW,202,2.5,5.8,66,0.00,,,0.00,0.0,WeatherDisplay:10.37,2013-10-29 00:54:00,
2013-10-28 17:59:00,53.9,43.6,29.71,SW,231,2.8,8.1,68,0.00,,,0.00,0.0,WeatherDisplay:10.37,2013-10-29 00:59:00,
2013-10-28 18:04:00,53.7,43.8,29.71,West,271,2.1,5.8,69,0.00,,,0.00,0.0,WeatherDisplay:10.37,2013-10-29 01:04:00,
2013-10-28 18:09:00,53.4,43.5,29.71,South,191,4.3,8.1,69,0.00,,,0.00,0.0,WeatherDisplay:10.37,2013-10-29 01:09:00,
2013-10-28 18:14:00,53.4,43.9,29.71,West,268,0.9,4.6,70,0.00,,,0.00,0.0,WeatherDisplay:10.37,2013-10-29 01:14:00,
2013-10-28 18:19:00,53.3,44.1,29.71,West,261,1.9,4.6,71,0.00,,,0.00,0.0,WeatherDisplay:10.37,2013-10-29 01:19:00,
2013-10-28 18:24:00,53.1,43.9,29.71,South,171,1.5,3.5,71,0.00,,,0.00,0.0,WeatherDisplay:10.37,2013-10-29 01:24:00,
2013-10-28 18:29:00,53.1,44.3,29.72,NNW,338,2.6,5.8,72,0.00,,,0.00,0.0,WeatherDisplay:10.37,2013-10-29 01:29:00,
2013-10-28 18:34:00,52.8,44.0,29.72,SSE,166,1.7,3.5,72,0.00,,,0.00,0.0,WeatherDisplay:10.37,2013-10-29 01:34:00,
2013-10-28 18:39:00,52.8,44.4,29.72,SSW,200,0.9,4.6,73,0.00,,,0.00,0.0,WeatherDisplay:10.37,2013-10-29 01:39:00,
2013-10-28 18:44:00,52.7,44.3,29.72,South,172,1.1,2.3,73,0.00,,,0.00,0.0,WeatherDisplay:10.37,2013-10-29 01:44:00,
2013-10-28 18:49:00,52.7,44.3,29.72,SSE,149,2.4,3.5,73,0.00,,,0.00,0.0,WeatherDisplay:10.37,2013-10-29 01:49:00,
2013-10-28 18:54:00,52.7,44.3,29.72,SSW,210,0.7,4.6,73,0.00,,,0.00,0.0,WeatherDisplay:10.37,2013-10-29 01:54:00,
2013-10-28 18:59:00,52.5,44.1,29.72,SW,217,0.0,2.3,73,0.00,,,0.00,0.0,WeatherDisplay:10.37,2013-10-29 01:59:00,
2013-10-28 19:04:00,52.4,44.4,29.73,SSW,213,0.1,1.2,74,0.00,,,0.00,0.0,WeatherDisplay:10.37,2013-10-29 02:04:00,
2013-10-28 19:09:00,52.2,44.2,29.73,SSE,163,0.0,3.5,74,0.00,,,0.00,0.0,WeatherDisplay:10.37,2013-10-29 02:09:00,
2013-10-28 19:14:00,52.1,44.1,29.73,South,187,0.2,2.3,74,0.00,,,0.00,0.0,WeatherDisplay:10.37,2013-10-29 02:14:00,
2013-10-28 19:19:00,52.1,44.1,29.73,SW,234,2.9,5.8,74,0.00,,,0.00,0.0,WeatherDisplay:10.37,2013-10-29 02:19:00,
2013-10-28 19:24:00,51.9,43.9,29.74,WSW,246,0.5,1.2,74,0.00,,,0.00,0.0,WeatherDisplay:10.37,2013-10-29 02:24:00,
2013-10-28 19:29:00,51.9,43.9,29.74,SSE,164,1.2,3.5,74,0.00,,,0.00,0.0,WeatherDisplay:10.37,2013-10-29 02:29:00,
2013-10-28 19:34:00,51.9,43.9,29.74,West,281,0.2,1.2,74,0.00,,,0.00,0.0,WeatherDisplay:10.37,2013-10-29 02:34:00,
2013-10-28 19:39:00,51.8,43.8,29.74,SW,230,0.1,1.2,74,0.00,,,0.00,0.0,WeatherDisplay:10.37,2013-10-29 02:39:00,
2013-10-28 19:44:00,51.9,43.9,29.74,SSE,161,0.3,2.3,74,0.00,,,0.00,0.0,WeatherDisplay:10.37,2013-10-29 02:44:00,
2013-10-28 19:49:00,51.9,43.9,29.74,SSE,162,0.0,0.0,74,0.00,,,0.00,0.0,WeatherDisplay:10.37,2013-10-29 02:49:00,
2013-10-28 19:54:00,52.1,44.1,29.74,SSE,154,1.1,3.5,74,0.00,,,0.00,0.0,WeatherDisplay:10.37,2013-10-29 02:54:00,
2013-10-28 19:59:00,52.1,44.1,29.74,SSE,154,0.0,0.0,74,0.00,,,0.00,0.0,WeatherDisplay:10.37,2013-10-29 02:59:00,
2013-10-28 20:04:00,52.1,44.1,29.74,SSE,154,0.0,0.0,74,0.00,,,0.00,0.0,WeatherDisplay:10.37,2013-10-29 03:04:00,
2013-10-28 20:09:00,51.9,43.9,29.74,SSE,154,0.0,0.0,74,0.00,,,0.00,0.0,WeatherDisplay:10.37,2013-10-29 03:09:00,
2013-10-28 20:14:00,51.8,44.1,29.75,SSE,154,0.0,0.0,75,0.00,,,0.00,0.0,WeatherDisplay:10.37,2013-10-29 03:14:00,
2013-10-28 20:19:00,51.8,43.8,29.75,SSW,203,0.0,3.5,74,0.00,,,0.00,0.0,WeatherDisplay:10.37,2013-10-29 03:19:00,
2013-10-28 20:24:00,51.8,44.1,29.75,SSW,204,0.0,1.2,75,0.00,,,0.00,0.0,WeatherDisplay:10.37,2013-10-29 03:24:00,
2013-10-28 20:29:00,51.8,44.1,29.75,SSW,204,0.0,0.0,75,0.00,,,0.00,0.0,WeatherDisplay:10.37,2013-10-29 03:29:00,
2013-10-28 20:34:00,51.8,44.1,29.75,SSW,207,0.0,0.0,75,0.00,,,0.00,0.0,WeatherDisplay:10.37,2013-10-29 03:34:00,
2013-10-28 20:39:00,51.6,43.9,29.75,WSW,237,0.3,1.2,75,0.00,,,0.00,0.0,WeatherDisplay:10.37,2013-10-29 03:39:00,
2013-10-28 20:44:00,51.6,43.9,29.76,South,188,0.1,1.2,75,0.00,,,0.00,0.0,WeatherDisplay:10.37,2013-10-29 03:44:00,
2013-10-28 20:49:00,51.5,43.8,29.76,SSW,205,1.1,3.5,75,0.00,,,0.00,0.0,WeatherDisplay:10.37,2013-10-29 03:49:00,
2013-10-28 20:54:00,51.6,43.9,29.76,SSW,194,0.0,1.2,75,0.00,,,0.00,0.0,WeatherDisplay:10.37,2013-10-29 03:54:00,
2013-10-28 20:59:00,51.8,44.1,29.76,SSW,197,0.0,0.0,75,0.00,,,0.00,0.0,WeatherDisplay:10.37,2013-10-29 03:59:00,
2013-10-28 21:01:00,51.8,44.1,29.77,SSW,197,0.1,1.2,75,0.00,,,0.00,0.0,WeatherDisplay:10.37,2013-10-29 04:01:00,
2013-10-28 21:02:00,51.9,44.2,29.77,SSW,197,0.0,1.2,75,0.00,,,0.00,0.0,WeatherDisplay:10.37,2013-10-29 04:02:00,
2013-10-28 21:03:00,51.9,44.2,29.77,SSW,197,0.0,0.0,75,0.00,,,0.00,0.0,WeatherDisplay:10.37,2013-10-29 04:03:00,
2013-10-28 21:04:00,51.9,44.2,29.77,SSW,197,0.0,0.0,75,0.00,,,0.00,0.0,WeatherDisplay:10.37,2013-10-29 04:04:00,
2013-10-28 21:06:00,51.9,44.2,29.77,SSW,197,0.0,1.0,75,0.00,,,0.00,0.0,WeatherDisplay:10.37,2013-10-29 04:06:00,
2013-10-28 21:11:00,52.1,44.1,29.77,SSW,197,0.0,0.0,74,0.00,,,0.00,0.0,WeatherDisplay:10.37,2013-10-29 04:11:00,
2013-10-28 21:16:00,51.9,43.9,29.77,SSW,197,0.0,0.0,74,0.00,,,0.00,0.0,WeatherDisplay:10.37,2013-10-29 04:16:00,
2013-10-28 21:21:00,52.1,44.1,29.77,SSW,196,0.0,0.0,74,0.00,,,0.00,0.0,WeatherDisplay:10.37,2013-10-29 04:21:00,
2013-10-28 21:26:00,52.1,44.1,29.78,SW,215,1.4,3.5,74,0.00,,,0.00,0.0,WeatherDisplay:10.37,2013-10-29 04:26:00,
2013-10-28 21:31:00,52.2,44.2,29.78,SW,215,0.0,0.0,74,0.00,,,0.00,0.0,WeatherDisplay:10.37,2013-10-29 04:31:00,
2013-10-28 21:36:00,52.4,44.0,29.78,SE,135,0.0,0.0,73,0.00,,,0.00,0.0,WeatherDisplay:10.37,2013-10-29 04:36:00,
2013-10-28 21:41:00,52.4,44.4,29.78,SE,135,0.0,1.2,74,0.00,,,0.00,0.0,WeatherDisplay:10.37,2013-10-29 04:41:00,
2013-10-28 21:46:00,52.4,44.4,29.78,SE,135,0.0,0.0,74,0.00,,,0.00,0.0,WeatherDisplay:10.37,2013-10-29 04:46:00,
2013-10-28 21:51:00,52.5,44.1,29.78,SE,135,0.4,2.3,73,0.00,,,0.00,0.0,WeatherDisplay:10.37,2013-10-29 04:51:00,
2013-10-28 21:56:00,52.7,44.3,29.79,SE,136,0.1,0.0,73,0.00,,,0.00,0.0,WeatherDisplay:10.37,2013-10-29 04:56:00,
2013-10-28 22:01:00,52.7,44.3,29.79,SE,131,0.2,1.2,73,0.00,,,0.00,0.0,WeatherDisplay:10.37,2013-10-29 05:01:00,
2013-10-28 22:06:00,52.7,44.6,29.79,SE,131,0.0,0.0,74,0.00,,,0.00,0.0,WeatherDisplay:10.37,2013-10-29 05:06:00,
2013-10-28 22:11:00,52.5,44.4,29.79,SE,131,0.0,0.0,74,0.00,,,0.00,0.0,WeatherDisplay:10.37,2013-10-29 05:11:00,
2013-10-28 22:16:00,52.5,44.4,29.79,SE,131,0.0,0.0,74,0.00,,,0.00,0.0,WeatherDisplay:10.37,2013-10-29 05:16:00,
2013-10-28 22:21:00,52.5,44.4,29.80,SE,131,0.0,0.0,74,0.00,,,0.00,0.0,WeatherDisplay:10.37,2013-10-29 05:21:00,
2013-10-28 22:26:00,52.5,44.4,29.79,SE,131,0.0,0.0,74,0.00,,,0.00,0.0,WeatherDisplay:10.37,2013-10-29 05:26:00,
2013-10-28 22:31:00,52.7,44.3,29.79,SE,131,0.0,0.0,73,0.00,,,0.00,0.0,WeatherDisplay:10.37,2013-10-29 05:31:00,
2013-10-28 22:36:00,52.5,44.4,29.80,SE,131,0.0,1.0,74,0.00,,,0.00,0.0,WeatherDisplay:10.37,2013-10-29 05:36:00,
2013-10-28 22:41:00,52.5,44.1,29.80,SE,131,0.0,0.0,73,0.00,,,0.00,0.0,WeatherDisplay:10.37,2013-10-29 05:41:00,
2013-10-28 22:46:00,52.7,44.3,29.80,SE,131,0.0,0.0,73,0.00,,,0.00,0.0,WeatherDisplay:10.37,2013-10-29 05:46:00,
2013-10-28 22:51:00,52.7,44.6,29.80,SE,131,0.0,1.2,74,0.00,,,0.00,0.0,WeatherDisplay:10.37,2013-10-29 05:51:00,
2013-10-28 22:56:00,52.7,44.6,29.81,SE,131,0.0,1.2,74,0.00,,,0.00,0.0,WeatherDisplay:10.37,2013-10-29 05:56:00,
2013-10-28 23:01:00,52.7,44.6,29.81,SE,131,0.0,0.0,74,0.00,,,0.00,0.0,WeatherDisplay:10.37,2013-10-29 06:01:00,
2013-10-28 23:06:00,52.7,45.0,29.81,SE,131,0.1,1.2,75,0.00,,,0.00,0.0,WeatherDisplay:10.37,2013-10-29 06:06:00,
2013-10-28 23:11:00,52.7,45.7,29.81,SE,131,0.0,0.0,77,0.00,,,0.00,0.0,WeatherDisplay:10.37,2013-10-29 06:11:00,
2013-10-28 23:16:00,52.7,45.7,29.81,SE,131,0.0,0.0,77,0.00,,,0.00,0.0,WeatherDisplay:10.37,2013-10-29 06:16:00,
2013-10-28 23:21:00,52.5,45.5,29.81,SE,131,0.0,0.0,77,0.00,,,0.00,0.0,WeatherDisplay:10.37,2013-10-29 06:21:00,
2013-10-28 23:26:00,52.5,44.8,29.81,SE,131,0.0,0.0,75,0.00,,,0.00,0.0,WeatherDisplay:10.37,2013-10-29 06:26:00,
2013-10-28 23:31:00,52.4,44.0,29.81,SE,136,0.0,0.0,73,0.00,,,0.00,0.0,WeatherDisplay:10.37,2013-10-29 06:31:00,
2013-10-28 23:36:00,52.4,44.4,29.81,SE,136,0.0,0.0,74,0.00,,,0.00,0.0,WeatherDisplay:10.37,2013-10-29 06:36:00,
2013-10-28 23:41:00,52.1,44.1,29.81,SE,136,0.0,0.0,74,0.00,,,0.00,0.0,WeatherDisplay:10.37,2013-10-29 06:41:00,
2013-10-28 23:46:00,51.9,44.2,29.81,SE,136,0.0,0.0,75,0.00,,,0.00,0.0,WeatherDisplay:10.37,2013-10-29 06:46:00,
2013-10-28 23:51:00,51.9,44.6,29.81,SE,136,0.0,0.0,76,0.00,,,0.00,0.0,WeatherDisplay:10.37,2013-10-29 06:51:00,
2013-10-28 23:56:00,51.5,44.5,29.81,SE,136,0.0,0.0,77,0.00,,,0.00,0.0,WeatherDisplay:10.37,2013-10-29 06:56:00,